Niagara Falls, NY

10:33 AM EST on December 09, 2019 (GMT -0500)
Niagara Falls International

Weather History for KIAG - October, 2019

Change the Weather History Date:

Monday, October 14, 2019

  Actual Average Record
Temperature  
Mean Temperature 45 °F -  
Max Temperature 53 °F 58 °F 80 °F (2014)
Min Temperature 39 °F 40 °F 24 °F (1993)
Degree Days  
Heating Degree Days 20    
Moisture  
Dew Point 36 °F    
Average Humidity 65    
Maximum Humidity 86    
Minimum Humidity 46    
Precipitation  
Precipitation 0.00 in - - ()
Sea Level Pressure  
Sea Level Pressure 29.98 in    
Wind  
Wind Speed 8 mph (West)    
Max Wind Speed 14 mph    
Max Gust Speed 23 mph    
Visibility 10 miles    
Events      
Averages and records for this station are not official NWS values.
T = Trace of Precipitation, MM = Missing Value Source: NWS Daily Summary

Daily Weather History Graph

Daily Weather History Graph

Search for Another Location

Airport or City:

Astronomy

Oct. 14, 2019 Rise Set
Actual Time 7:27 AM EDT 6:35 PM EDT
Civil Twilight 6:59 AM EDT 7:03 PM EDT
Nautical Twilight 6:26 AM EDT 7:36 PM EDT
Astronomical Twilight 5:53 AM EDT 8:09 PM EDT
Moon 7:24 PM EDT (10/14) 7:57 AM EDT (10/14)
Length of Visible Light 12h 04m
Length of Day
11h 07m
Waxing Gibbous, 99% of the Moon is Illuminated
Oct 14
Waxing Gibbous
Oct 21
Last Quarter
Oct 27
New
Nov 4
First Quarter
Nov 12
Full

Hourly Weather History & Observations

Time (EDT) Temp. Windchill Dew Point Humidity Pressure Visibility Wind Dir Wind Speed Gust Speed Precip Events Conditions
12:53 AM 50.0 °F - 43.0 °F 77% 29.86 in 10.0 mi North 5.8 mph - N/A   Clear
1:53 AM 48.9 °F - 43.0 °F 80% 29.86 in 10.0 mi SE 5.8 mph - N/A   Overcast
2:53 AM 48.0 °F - 44.1 °F 86% 29.88 in 10.0 mi NNW 4.6 mph - N/A   Overcast
3:53 AM 46.9 °F - 43.0 °F 86% 29.86 in 10.0 mi Calm Calm - N/A   Mostly Cloudy
4:53 AM 48.0 °F - 41.0 °F 77% 29.88 in 10.0 mi West 8.1 mph - N/A   Overcast
5:53 AM 46.9 °F - 37.9 °F 71% 29.89 in 10.0 mi WSW 6.9 mph - 0.00 in   Overcast
6:53 AM 48.0 °F - 36.0 °F 63% 29.91 in 10.0 mi WSW 12.7 mph - N/A   Overcast
7:53 AM 46.0 °F 40.2 °F 37.9 °F 73% 29.94 in 10.0 mi West 12.7 mph - N/A   Overcast
8:53 AM 46.0 °F 40.6 °F 37.0 °F 71% 29.96 in 10.0 mi WNW 11.5 mph - N/A   Overcast
9:53 AM 46.9 °F - 35.1 °F 63% 29.97 in 10.0 mi WNW 11.5 mph - N/A   Overcast
10:53 AM 46.9 °F - 34.0 °F 61% 29.99 in 10.0 mi West 9.2 mph - N/A   Overcast
12:53 PM 50.0 °F - 32.0 °F 50% 30.00 in 10.0 mi West 11.5 mph - N/A   Overcast
1:53 PM 51.1 °F - 33.1 °F 50% 30.00 in 10.0 mi West 10.4 mph - N/A   Overcast
2:53 PM 50.0 °F - 32.0 °F 50% 30.00 in 10.0 mi West 13.8 mph 23.0 mph N/A   Overcast
3:53 PM 51.1 °F - 32.0 °F 48% 30.02 in 10.0 mi West 13.8 mph - N/A   Overcast
4:53 PM 51.1 °F - 30.9 °F 46% 30.03 in 10.0 mi WNW 11.5 mph - N/A   Overcast
5:53 PM 50.0 °F - 30.0 °F 46% 30.05 in 10.0 mi West 12.7 mph - N/A   Scattered Clouds
6:53 PM 44.1 °F 39.0 °F 30.9 °F 60% 30.06 in 10.0 mi West 9.2 mph - N/A   Clear
9:55 PM 39.9 °F 35.1 °F 30.9 °F 70% 30.08 in 10.0 mi WNW 6.9 mph - N/A   Clear
10:53 PM 39.0 °F 35.7 °F 30.9 °F 73% 30.12 in 10.0 mi West 4.6 mph - N/A   Clear
11:53 PM 41.0 °F - 33.1 °F 73% 30.12 in 10.0 mi Calm Calm - N/A   Overcast